Bigfork, MN

9:42 PM CST on February 12, 2016 (GMT -0600)
Bigfork Municipal

Weather History for KFOZ - August, 2013

Change the Weather History Date:

Friday, August 23, 2013

  Actual Average (KGPZ) Record (KGPZ)
Temperature  
Mean Temperature 60 °F -  
Max Temperature 82 °F 73 °F 94 °F (1947)
Min Temperature 39 °F 52 °F 29 °F (1940)
Degree Days  
Heating Degree Days 4    
Growing Degree Days 10 (Base 50)    
Moisture  
Dew Point 50 °F    
Average Humidity 67    
Maximum Humidity 100    
Minimum Humidity 35    
Precipitation  
Precipitation 0.00 in - - ()
Sea Level Pressure  
Sea Level Pressure 30.11 in    
Wind  
Wind Speed 3 mph (South)    
Max Wind Speed 12 mph    
Max Gust Speed 16 mph    
Visibility 10 miles    
Events Fog    
Averages and records for this station are not official NWS values.
T = Trace of Precipitation, MM = Missing Value Source: NWS Daily Summary

Daily Weather History Graph

Daily Weather History Graph

Search for Another Location

Airport or City:

Trip Planner

Search our weather history database for the weather conditions in past years. The results will help you decide how hot, cold, wet, or windy it might be!

Date:

Astronomy

Aug. 23, 2013 Rise Set
Actual Time 6:21 AM CDT 8:12 PM CDT
Civil Twilight 5:48 AM CDT 8:45 PM CDT
Nautical Twilight 5:07 AM CDT 9:25 PM CDT
Astronomical Twilight 4:22 AM CDT 10:09 PM CDT
Moon 9:11 PM CDT (8/23) 9:34 AM CDT (8/23)
Length of Visible Light 14h 56m
Length of Day
13h 51m
Waning Gibbous, 91% of the Moon is Illuminated
Aug 23
Waning Gibbous
Aug 28
Last Quarter
Sep 5
New
Sep 12
First Quarter
Sep 19
Full

Hourly Weather History & Observations

Time (CDT) Temp. Heat Index Dew Point Humidity Pressure Visibility Wind Dir Wind Speed Gust Speed Precip Events Conditions
12:13 AM 48.2 °F - 46.4 °F 93% 30.17 in 10.0 mi Calm Calm - N/A   Clear
12:33 AM 48.2 °F - 46.4 °F 93% 30.17 in 2.5 mi Calm Calm - N/A   Clear
12:53 AM 46.4 °F - 44.6 °F 93% 30.17 in 10.0 mi Calm Calm - N/A   Clear
1:13 AM 46.4 °F - 44.6 °F 93% 30.17 in 10.0 mi Calm Calm - N/A   Clear
1:33 AM 46.4 °F - 44.6 °F 93% 30.17 in 10.0 mi Calm Calm - N/A   Clear
1:53 AM 46.4 °F - 44.6 °F 93% 30.17 in 10.0 mi Calm Calm - N/A   Clear
2:13 AM 44.6 °F - 42.8 °F 93% 30.17 in 7.0 mi Calm Calm - N/A   Clear
2:33 AM 44.6 °F - 42.8 °F 93% 30.16 in 10.0 mi Calm Calm - N/A   Clear
2:53 AM 44.6 °F - 42.8 °F 93% 30.16 in 10.0 mi Calm Calm - N/A   Clear
3:13 AM 42.8 °F - 42.8 °F 100% 30.16 in 10.0 mi Calm Calm - N/A   Clear
3:33 AM 42.8 °F - 41.0 °F 93% 30.16 in 10.0 mi Calm Calm - N/A   Clear
3:53 AM 42.8 °F - 39.2 °F 87% 30.16 in 10.0 mi Calm Calm - N/A   Clear
4:13 AM 42.8 °F - 41.0 °F 93% 30.16 in 10.0 mi Calm Calm - N/A   Clear
4:33 AM 42.8 °F - 39.2 °F 87% 30.16 in 10.0 mi Calm Calm - N/A   Clear
4:53 AM 41.0 °F - 39.2 °F 93% 30.16 in 10.0 mi Calm Calm - N/A   Clear
5:13 AM 42.8 °F - 39.2 °F 87% 30.16 in 10.0 mi Calm Calm - N/A   Clear
5:33 AM 41.0 °F - 39.2 °F 93% 30.16 in 10.0 mi Calm Calm - N/A   Clear
5:53 AM 41.0 °F - 39.2 °F 93% 30.17 in 10.0 mi Calm Calm - N/A   Clear
6:13 AM 39.2 °F - 39.2 °F 100% 30.17 in 10.0 mi Calm Calm - N/A   Clear
6:33 AM 39.2 °F - 37.4 °F 93% 30.17 in 10.0 mi Calm Calm - N/A   Mostly Cloudy
6:53 AM 42.8 °F - 39.2 °F 87% 30.17 in 0.2 mi Calm Calm - N/A Fog Fog
7:13 AM 44.6 °F - 42.8 °F 93% 30.18 in 10.0 mi Calm Calm - N/A   Scattered Clouds
7:33 AM 46.4 °F - 44.6 °F 93% 30.17 in 10.0 mi Calm Calm - N/A   Clear
7:53 AM 51.8 °F - 50.0 °F 94% 30.17 in 10.0 mi Calm Calm - N/A   Clear
8:13 AM 55.4 °F - 53.6 °F 94% 30.17 in 10.0 mi Calm Calm - N/A   Clear
8:33 AM 57.2 °F - 55.4 °F 94% 30.17 in 10.0 mi Calm Calm - N/A   Clear
8:53 AM 62.6 °F - 57.2 °F 82% 30.16 in 10.0 mi Calm Calm - N/A   Clear
9:13 AM 66.2 °F - 57.2 °F 73% 30.16 in 10.0 mi South 5.8 mph - N/A   Clear
9:33 AM 68.0 °F - 55.4 °F 64% 30.15 in 10.0 mi South 4.6 mph - N/A   Clear
9:53 AM 71.6 °F - 55.4 °F 57% 30.15 in 10.0 mi South 6.9 mph - N/A   Clear
10:13 AM 73.4 °F - 53.6 °F 50% 30.15 in 10.0 mi South 9.2 mph - N/A   Clear
10:33 AM 73.4 °F - 51.8 °F 47% 30.15 in 10.0 mi South 9.2 mph - N/A   Clear
10:53 AM 75.2 °F - 51.8 °F 44% 30.14 in 10.0 mi South 8.1 mph - N/A   Clear
11:14 AM 75.2 °F - 51.8 °F 44% 30.14 in 10.0 mi South 9.2 mph 16.1 mph N/A   Clear
11:33 AM 77.0 °F - 51.8 °F 41% 30.13 in 10.0 mi South 10.4 mph - N/A   Clear
11:53 AM 77.0 °F - 51.8 °F 41% 30.14 in 10.0 mi SW 11.5 mph 16.1 mph N/A   Clear
12:13 PM 77.0 °F - 51.8 °F 41% 30.13 in 10.0 mi South 9.2 mph - N/A   Clear
12:33 PM 78.8 °F - 53.6 °F 42% 30.12 in 10.0 mi South 8.1 mph - N/A   Clear
12:53 PM 78.8 °F - 51.8 °F 39% 30.12 in 10.0 mi South 8.1 mph - N/A   Clear
1:13 PM 78.8 °F - 51.8 °F 39% 30.11 in 10.0 mi SSE 8.1 mph - N/A   Clear
1:33 PM 80.6 °F - 51.8 °F 37% 30.11 in 10.0 mi South 9.2 mph - N/A   Clear
1:53 PM 80.6 °F - 51.8 °F 37% 30.10 in 10.0 mi South 8.1 mph - N/A   Clear
2:13 PM 80.6 °F 80.3 °F 53.6 °F 39% 30.10 in 10.0 mi SSW 8.1 mph - N/A   Clear
2:33 PM 82.4 °F 81.4 °F 53.6 °F 37% 30.09 in 10.0 mi South 9.2 mph - N/A   Clear
2:53 PM 82.4 °F 81.4 °F 53.6 °F 37% 30.08 in 10.0 mi South 8.1 mph - N/A   Clear
3:13 PM 82.4 °F 81.4 °F 53.6 °F 37% 30.08 in 10.0 mi South 8.1 mph 16.1 mph N/A   Clear
3:33 PM 82.4 °F - 51.8 °F 35% 30.07 in 10.0 mi South 6.9 mph - N/A   Clear
3:53 PM 80.6 °F - 51.8 °F 37% 30.07 in 10.0 mi SSE 9.2 mph - N/A   Clear
4:13 PM 80.6 °F 80.3 °F 53.6 °F 39% 30.06 in 10.0 mi SSE 4.6 mph - N/A   Clear
4:33 PM 82.4 °F 81.4 °F 53.6 °F 37% 30.06 in 10.0 mi South 10.4 mph - N/A   Clear
4:53 PM 82.4 °F 81.4 °F 53.6 °F 37% 30.06 in 10.0 mi South 8.1 mph - N/A   Scattered Clouds
5:13 PM 80.6 °F 80.3 °F 53.6 °F 39% 30.05 in 10.0 mi South 8.1 mph - N/A   Scattered Clouds
5:33 PM 80.6 °F 80.3 °F 53.6 °F 39% 30.05 in 10.0 mi South 6.9 mph - N/A   Clear
5:53 PM 80.6 °F 80.5 °F 55.4 °F 42% 30.04 in 10.0 mi South 9.2 mph - N/A   Clear
6:13 PM 78.8 °F - 53.6 °F 42% 30.04 in 10.0 mi South 6.9 mph - N/A   Clear
6:33 PM 78.8 °F - 55.4 °F 44% 30.04 in 10.0 mi South 5.8 mph - N/A   Clear
6:53 PM 78.8 °F - 55.4 °F 44% 30.04 in 10.0 mi South 4.6 mph - N/A   Clear
7:13 PM 77.0 °F - 55.4 °F 47% 30.03 in 10.0 mi SSE 4.6 mph - N/A   Clear
7:33 PM 73.4 °F - 55.4 °F 53% 30.03 in 10.0 mi Calm Calm - N/A   Clear
7:53 PM 69.8 °F - 57.2 °F 64% 30.03 in 10.0 mi Calm Calm - N/A   Clear
8:13 PM 66.2 °F - 59.0 °F 78% 30.03 in 10.0 mi Calm Calm - N/A   Clear
8:33 PM 64.4 °F - 57.2 °F 77% 30.03 in 10.0 mi Calm Calm - N/A   Clear
8:53 PM 64.4 °F - 57.2 °F 77% 30.03 in 10.0 mi Calm Calm - N/A   Clear
9:13 PM 62.6 °F - 57.2 °F 82% 30.04 in 10.0 mi ESE 3.5 mph - N/A   Clear
9:33 PM 62.6 °F - 57.2 °F 82% 30.04 in 10.0 mi Calm Calm - N/A   Clear
9:53 PM 62.6 °F - 57.2 °F 82% 30.03 in 10.0 mi SE 3.5 mph - N/A   Clear
10:13 PM 64.4 °F - 57.2 °F 77% 30.03 in 10.0 mi SE 3.5 mph - N/A   Clear
10:33 PM 64.4 °F - 55.4 °F 73% 30.03 in 10.0 mi SSE 3.5 mph - N/A   Clear
10:53 PM 66.2 °F - 55.4 °F 68% 30.03 in 10.0 mi SE 4.6 mph - N/A   Clear
11:13 PM 68.0 °F - 55.4 °F 64% 30.03 in 10.0 mi SSE 4.6 mph - N/A   Clear
11:33 PM 66.2 °F - 55.4 °F 68% 30.03 in 10.0 mi SSE 4.6 mph - N/A   Clear
11:53 PM 66.2 °F - 57.2 °F 73% 30.03 in 10.0 mi SSE 5.8 mph - N/A   Clear